Weather observations for the past three days for
Sanford, Sanford Regional Airport
Metric (Imperial)
Date Time (edt) Wind (kph) Vis. (km) Weather Sky Cond. Temperature (ºC) Relative Humidity Wind Chill (°C) Heat Index (°C) Pressure Precipitation (cm)
Air Dwpt 6 hour altimeter (cm) sea level (mb) 1 hr 3 hr 6 hr
Max. Min.
24 23:56 N 11 16.09 Fair CLR 16.1 6.7 54% 75.77 1010.3
24 22:56 N 17 16.09 Fair CLR 17.8 6.7 48% 75.72 1009.7
24 21:56 N 13 16.09 Fair CLR 19.4 7.8 47% 75.69 1009.2
24 20:56 N 13 16.09 Fair CLR 21.7 8.9 44% 75.57 1007.8
24 19:56 NW 9 16.09 Fair CLR 23.9 8.3 28.3 23.9 37% 25 75.46 1006.1
24 18:56 W 22 G 31 16.09 A Few Clouds FEW100 26.1 7.2 30% 26 75.36 1004.9
24 17:56 W 20 G 39 16.09 Overcast OVC100 26.7 7.2 29% 26 75.34 1004.6
24 16:56 W 28 G 39 16.09 Mostly Cloudy BKN095 26.7 7.8 30% 26 75.34 1004.5
24 15:56 W 30 G 46 16.09 Mostly Cloudy BKN100 27.2 6.1 26% 26 75.31 1004.3
24 14:56 W 26 G 43 16.09 A Few Clouds FEW090 28.3 6.7 25% 27 75.34 1004.6
24 13:56 W 30 G 44 16.09 Partly Cloudy SCT085 27.2 6.7 27.8 20.6 27% 26 75.39 1005.2
24 12:56 W 22 G 43 16.09 Partly Cloudy SCT080 26.1 7.8 31% 26 75.44 1005.9
24 11:56 W 33 G 46 16.09 Partly Cloudy and Breezy SCT080 26.7 7.2 29% 26 75.46 1006.3
24 10:56 W 17 G 41 16.09 Fair CLR 25.6 6.7 30% 26 75.57 1007.4
24 09:56 SW 17 16.09 Fair CLR 24.4 9.4 39% 25 75.62 1008.3
24 08:56 SW 22 G 30 16.09 Fair CLR 22.8 10 44% 75.67 1009.0
24 07:56 SW 7 16.09 Fair CLR 20.6 10 20.6 8.3 51% 75.72 1009.5
24 06:56 SW 9 16.09 Fair CLR 17.2 10.6 65% 75.72 1009.7
24 05:56 W 6 16.09 Fair CLR 10.6 8.9 89% 75.72 1009.6
24 04:56 SW 9 16.09 Fair CLR 9.4 7.2 86% 8 75.69 1009.4
24 03:56 W 9 16.09 Fair CLR 9.4 8.3 93% 8 75.69 1009.3
24 02:56 W 7 16.09 Fair CLR 10 8.9 93% 9 75.67 1009.1
24 01:56 SW 9 16.09 Fair CLR 15 10 25 13.9 72% 75.67 1009.0
24 00:56 SW 13 16.09 Fair CLR 16.1 10.6 70% 75.69 1009.2
23 23:56 SW 11 16.09 Fair CLR 13.9 11.7 87% 75.67 1009.0
23 22:56 W 13 16.09 Fair CLR 17.2 12.8 76% 75.62 1008.3
23 21:56 W 9 16.09 Fair CLR 21.7 13.3 59% 75.59 1008.0
23 20:56 W 11 16.09 A Few Clouds FEW002 23.3 14.4 57% 75.57 1007.5
23 19:56 W 11 16.09 Fair CLR 25 15 27.2 24.4 54% 26 75.54 1007.1
23 18:56 W 9 16.09 A Few Clouds FEW060 26.7 16.7 54% 27 75.51 1006.9
23 17:56 SW 11 16.09 Mostly Cloudy BKN050 26.1 20.6 72% 28 75.49 1006.4
23 16:56 SW 13 16.09 Fair CLR 26.1 20.6 72% 28 75.51 1007.0
23 15:56 Vrbl 11 G 26 16.09 Mostly Cloudy BKN037 25 19.4 71% 26 75.57 1007.7
23 14:56 SW 13 16.09 Fair CLR 26.1 19.4 67% 27 75.57 1007.6
23 13:56 SW 11 16.09 Fair CLR 26.7 18.9 28.9 21.1 62% 28 75.62 1008.0
23 12:56 W 15 16.09 Fair CLR 28.3 18.3 55% 29 75.62 1008.1
23 11:56 W 13 16.09 Fair CLR 28.9 17.8 51% 30 75.62 1008.2
23 10:56 W 13 16.09 Partly Cloudy SCT100 27.2 18.9 61% 28 75.64 1008.5
23 09:56 W 17 14.48 Fair CLR 26.7 17.8 58% 28 75.64 1008.6
23 08:56 SW 13 16.09 A Few Clouds FEW100 25 18.9 69% 26 75.69 1009.0
23 07:56 SW 9 16.09 Mostly Cloudy SCT100 BKN120 21.1 17.8 21.1 16.7 82% 75.69 1009.2
23 06:56 SW 7 16.09 Fair CLR 20 17.8 87% 75.67 1009.0
23 05:56 SW 9 16.09 Fair CLR 18.9 17.2 90% 75.67 1009.0
23 04:56 Calm 16.09 Fair CLR 17.8 16.7 93% 75.64 1008.5
23 03:56 SW 7 16.09 Fair CLR 18.9 16.7 87% 75.67 1008.7
23 02:56 SW 11 16.09 Fair CLR 18.9 16.7 87% 75.69 1009.2
23 01:56 Calm 16.09 Fair CLR 20.6 17.2 25.6 20.6 81% 75.74 1009.6
23 00:56 SW 11 16.09 Fair CLR 21.7 17.2 76% 75.69 1009.2
22 23:56 SW 11 16.09 Fair CLR 23.3 17.2 69% 75.69 1009.1
22 22:56 SW 11 16.09 Fair CLR 23.9 17.8 69% 25 75.69 1009.3
22 21:56 SW 11 16.09 Fair CLR 23.9 17.8 69% 25 75.72 1009.7
22 20:56 SW 7 16.09 A Few Clouds FEW080 23.3 17.2 69% 75.72 1009.5
22 19:56 S 7 16.09 Fair CLR 25.6 16.7 32.2 25.6 58% 26 75.67 1009.0
22 18:56 S 7 16.09 Fair CLR 28.3 15.6 46% 28 75.67 1008.8
22 17:56 S 11 16.09 Fair CLR 30 15.6 42% 30 75.67 1008.9
22 16:56 Vrbl 9 16.09 Mostly Cloudy SCT090 BKN100 31.1 15.6 39% 31 75.69 1009.1
22 15:56 Vrbl 9 16.09 Mostly Cloudy BKN075 31.7 16.1 39% 32 75.69 1009.3
22 14:56 Vrbl 11 16.09 Fair CLR 31.7 15.6 38% 31 75.74 1009.9
22 13:56 SW 17 16.09 Fair CLR 31.1 15.6 31.1 19.4 39% 31 75.79 1010.6
22 12:56 S 17 G 26 16.09 Fair CLR 30 17.2 46% 30 75.84 1011.2
22 11:56 SW 9 16.09 Partly Cloudy SCT110 27.2 19.4 62% 29 75.9 1012.1
22 10:56 Vrbl 9 16.09 Mostly Cloudy BKN085 BKN110 26.1 18.9 65% 27 75.95 1012.6
22 09:56 Vrbl 6 16.09 Overcast OVC085 25 18.9 69% 26 75.97 1013.0
22 08:56 S 6 16.09 A Few Clouds FEW110 22.8 18.3 76% 76 1013.3
22 07:56 SW 11 16.09 Fair CLR 19.4 17.2 19.4 15.6 87% 76.02 1013.5
22 06:56 SW 9 16.09 Fair CLR 18.3 16.7 90% 76 1013.5
22 05:56 Vrbl 6 16.09 A Few Clouds FEW120 17.8 16.1 90% 75.97 1012.9
22 04:56 SW 7 16.09 Fair CLR 16.7 16.1 96% 75.9 1012.1
22 03:56 S 6 12.87 Fair CLR 16.1 16.1 100% 75.87 1011.7
22 02:56 SW 11 16.09 A Few Clouds FEW002 17.8 16.7 93% 75.92 1012.2
22 01:56 Calm 14.48 Fair CLR 17.2 16.1 20.6 15 93% 75.97 1012.9
22 00:56 W 6 11.27 Fair CLR 15 14.4 96% 75.97 1012.9
Date Time (edt) Wind (kph) Vis. (km) Weather Sky Cond. Air Dwpt Max. Min. Relative Humidity Wind Chill (°C) Heat Index (°C) altimeter (cm) sea level (mb) 1 hr 3 hr 6 hr
6 hour
Temperature (ºC) Pressure Precipitation (cm)